STARLINK-5559 (56335 NORAD) Tracking and Keplerian Element Data

This shows tracking and keplerian element data for the satellite.

Feedback or suggestion? Click here.




ElementValue
Catalog56335
NameSTARLINK-5559
Epoch Orbit179
Epoch Day126.91667824
Epoch Year2023
RAAN126.3828
Inclination97.6636
Eccentricity0.000151
Argument of Perigee89.3716
Mean Anonmoly129.5076
Mean Motion15.68260729
Decay Rate-0.00806653
L11 56335U 23058U 23126.91667824 -.00806653 00000+0 -79578-2 0 9994
L22 56335 97.6636 126.3828 0001510 89.3716 129.5076 15.68260729 1795



Live tracking and technical data element details for STARLINK-5559 (NORAD 56335). STARLINK-5559 can be tracked NOW for your location showing map with azimuth and elevation plus other details from your city location.







IsCatalogInMostPopularTable: catalog: 56335, numindb: 6
Update: records affected: 1



GetName: 56335 STARLINK-5559

Hit Count: updated at: Wed, 07 Jun 2023 08:18:16 GMT